[Iaude] MPEC J292: 2024 JP16 [a=1.58,e=0.34,i=5.4,H=26.3]

mpec at cfa.harvard.edu mpec at cfa.harvard.edu
Mon May 13 06:55:50 EDT 2024


M.P.E.C. 2024-J292                                 Issued 2024 May 13, 10:54 UT

     The Minor Planet Electronic Circulars contain information on unusual
         minor planets, routine data on comets and natural satellites,
         and occasional editorial announcements.  They are published
    on behalf of Division F of the International Astronomical Union by the
          Minor Planet Center, Smithsonian Astrophysical Observatory,
                          Cambridge, MA 02138, U.S.A.
			  
             Prepared using the Tamkin Foundation Computer Network

                              MPC at CFA.HARVARD.EDU
            URL https://www.minorplanetcenter.net/    ISSN 1523-6714

                                   2024 JP16                                    


Observations:
     K24J16P*KC2024 05 12.20656 17 11 04.747+16 47 12.44         20.3 GVEJ292W16
     K24J16P KC2024 05 12.21093 17 11 08.606+16 46 12.40         20.4 GVEJ292W16
     K24J16P KC2024 05 12.21544 17 11 12.624+16 45 09.50         20.1 GVEJ292W16
     K24J16P KC2024 05 12.21997 17 11 16.644+16 44 07.26         20.0 GVEJ292W16
     K24J16P KC2024 05 12.45256217 14 45.575+15 49 31.62         20.15GVEJ292I52
     K24J16P KC2024 05 12.45359817 14 46.475+15 49 16.82         20.25GVEJ292I52
     K24J16P KC2024 05 12.45463417 14 47.411+15 49 01.96         20.67GVEJ292I52
     K24J16P KC2024 05 12.45564917 14 48.318+15 48 47.02               VEJ292I52
     K24J16P 1C2024 05 12.87511 17 21 48.57 +14 06 33.9          20.6 VXEJ292033
     K24J16P 1C2024 05 12.87577 17 21 49.15 +14 06 24.1          20.8 VXEJ292033
     K24J16P 1C2024 05 12.87643 17 21 49.76 +14 06 14.8          20.2 VXEJ292033
     K24J16P 1C2024 05 12.87751 17 21 50.78 +14 05 59.5          20.8 VXEJ292033
     K24J16P KB2024 05 12.94276217 22 53.20 +13 50 46.0                XEJ292958
     K24J16P KB2024 05 12.94904617 22 58.85 +13 49 16.0          19.9 GXEJ292958
     K24J16P KB2024 05 12.95543817 23 04.58 +13 47 44.9                XEJ292958
     K24J16P KB2024 05 13.04897617 24 26.85 +13 25 08.0          20.0 GXEJ292I93
     K24J16P KB2024 05 13.05283917 24 30.18 +13 24 11.5          20.6 GXEJ292I93
     K24J16P KB2024 05 13.05662217 24 33.46 +13 23 16.3          20.9 GXEJ292I93
     K24J16P 1C2024 05 13.07568 17 24 47.44 +13 18 12.3          20.7 VXEJ292033
     K24J16P 1C2024 05 13.07646 17 24 48.14 +13 18 00.6          20.5 VXEJ292033
     K24J16P 1C2024 05 13.07764 17 24 49.15 +13 17 43.7          20.5 VXEJ292033
     K24J16P 1C2024 05 13.07864 17 24 50.05 +13 17 28.7          20.3 VXEJ292033
     K24J16P KC2024 05 13.23511817 27 29.11 +12 39 52.1          19.7 GVEJ292H21
     K24J16P KC2024 05 13.23704617 27 30.81 +12 39 24.0          19.8 GVEJ292H21
     K24J16P KC2024 05 13.23897417 27 32.50 +12 38 55.8          20.6 GVEJ292H21
     K24J16P KC2024 05 13.24090217 27 34.18 +12 38 27.3          20.9 GVEJ292H21
     K24J16P KC2024 05 13.24250917 27 35.60 +12 38 03.6          21.3 GVEJ292H21

Observer details:
033 Karl Schwarzschild Observatory, Tautenburg.  Observers C. Heogner, F.
    Ludwig, M. Hartmann, B. Stecklum.  Measurer B. Stecklum.  1.34-m f/3
    Schmidt + CCD.
958 Observatoire de Dax.  Observer P. Dupouy.  0.50-m f/4.5 Reflector + CMO.
H21 Astronomical Research Observatory, Westfield.  Observer R. Holmes.
    Measurers T. Linder, R. Holmes, L. Horn.  0.76-m f/3.0 astrograph + CCD.
I52 Steward Observatory, Mt. Lemmon Station.  Observer T. Beuden.  Measurers
    T. Beuden, V. F. Carvajal, D. Fay, J. B. Fazekas, D. C. Fuls, A. R. Gibbs,
    A. D. Grauer, H. Groeller, J. K. Hogan, R. A. Kowalski, S. M. Larson, G.
    J. Leonard, D. Rankin, R. L. Seaman, F. C. Shelly, K. W. Wierzchos.  1.0-m
    prime focus + CCD.
I93 St Pardon de Conques.  Observer F. Losse.  0.40-m f/3.7 reflector + CMO.
W16 Pleasant Groves Observatory.  Observer M. Holbrook.  0.36-m f/2.2
    reflector + CCD.

Orbital elements:
2024 JP16                                                Earth MOID = 0.0259 AU
Epoch 2024 Mar. 31.0 TT = JDT 2460400.5                 Veres                   
M 340.02731              (2000.0)            P               Q                  
n   0.49815268     Peri.  165.55911     -0.64429680     +0.76003619             
a   1.5760176      Node    64.25276     -0.71069775     -0.55397191             
e   0.3445461      Incl.    5.41561     -0.28247184     -0.33979421             
P   1.98           H   26.36          G   0.15           U   8                  
Residuals in seconds of arc
240512 W16  0.2+  0.1+    240512 033  0.1+  0.4-    240513 033  0.1-  0.3-
240512 W16  0.2-  0.2+    240512 033  0.1+  0.3-    240513 033  0.0   0.5-
240512 W16  0.0   0.3-    240512 033  0.4+  0.1-    240513 033  0.3-  0.1-
240512 W16  0.1+  0.0     240512 958  1.4-  1.5+    240513 033  0.0   0.4-
240512 I52  0.3-  0.1-    240512 958  1.5-  1.5+    240513 H21  0.3-  0.4+
240512 I52  0.3-  0.0     240512 958  1.6-  2.1+    240513 H21  0.1-  0.4+
240512 I52  0.1+  0.1+    240513 I93  0.3+  0.1-    240513 H21  0.1+  0.2+
240512 I52  0.5+  0.3-    240513 I93  0.2-  0.4-    240513 H21  0.1+  0.2-
240512 033  0.5+  0.0     240513 I93  0.3-  0.5-    240513 H21  0.3+  0.5-

Ephemeris:
2024 JP16                a,e,i = 1.58, 0.34, 5                   q = 1.0330
Date    TT    R. A. (2000) Decl.     Delta      r    Elong.  Phase     V
2024 04 13    12 50 18.0 +42 46 54   0.1005  1.0670   127.6    48.2    23.3
...
2024 04 28    14 03 57.6 +42 39 42   0.05869 1.0399   123.1    54.2    22.3
...
2024 05 06    15 33 45.8 +34 53 02   0.04004 1.0338   127.7    50.6    21.3
...
2024 05 12    17 07 34.0 +17 37 04   0.03208 1.0331   135.0    43.8    20.6
2024 05 13    17 23 36.4 +13 39 38   0.03165 1.0334   135.8    43.0    20.6
2024 05 14    17 39 19.2 +09 33 05   0.03152 1.0337   136.3    42.5    20.6
...
2024 05 20    19 00 27.1 -13 08 41   0.03686 1.0376   133.5    45.1    21.0
...
2024 05 28    20 07 35.6 -29 38 53   0.05414 1.0479   128.5    49.2    22.0
...
2024 06 12    20 55 55.9 -40 15 01   0.09565 1.0820   132.1    44.1    23.1

M. P. C. Staff               (C) Copyright 2024 MPC           M.P.E.C. 2024-J292





More information about the Iaude mailing list